Hoonah, AK

12:07 PM AKDT on August 21, 2017 (GMT -0800)
Hoonah

Weather History for PAOH - October, 2013

Change the Weather History Date:

Friday, October 4, 2013

  Actual Average Record
Temperature  
Mean Temperature 48 °F -  
Max Temperature 50 °F 48 °F 60 °F (2003)
Min Temperature 45 °F 39 °F 30 °F (2000)
Degree Days  
Heating Degree Days 18    
Moisture  
Dew Point 47 °F    
Average Humidity 97    
Maximum Humidity 100    
Minimum Humidity 86    
Precipitation  
Precipitation 0.27 in - - ()
Sea Level Pressure  
Sea Level Pressure 29.70 in    
Wind  
Wind Speed 4 mph (ENE)    
Max Wind Speed 9 mph    
Max Gust Speed -    
Visibility 8 miles    
Events Rain    
Averages and records for this station are not official NWS values.
T = Trace of Precipitation, MM = Missing Value Source: NWS Daily Summary

Daily Weather History Graph

Daily Weather History Graph

Search for Another Location

Airport or City:

Trip Planner

Search our weather history database for the weather conditions in past years. The results will help you decide how hot, cold, wet, or windy it might be!

Date:

Astronomy

Oct. 04, 2013 Rise Set
Actual Time 7:13 AM AKDT 6:25 PM AKDT
Civil Twilight 6:34 AM AKDT 7:04 PM AKDT
Nautical Twilight 5:48 AM AKDT 7:50 PM AKDT
Astronomical Twilight 5:00 AM AKDT 8:37 PM AKDT
Moon 7:01 AM AKDT (10/4) 6:02 PM AKDT (10/4)
Length of Visible Light 12h 30m
Length of Day
11h 12m
Waning Crescent, 0% of the Moon is Illuminated
Oct 4
Waning Crescent
Oct 4
New
Oct 11
First Quarter
Oct 18
Full
Oct 26
Last Quarter

Hourly Weather History & Observations

Time (AKDT) Temp. Dew Point Humidity Pressure Visibility Wind Dir Wind Speed Gust Speed Precip Events Conditions
12:27 AM 48.2 °F 46.4 °F 93% 29.69 in 5.0 mi ENE 6.9 mph - 0.00 in Rain Light Rain
12:56 AM 48.2 °F 46.4 °F 93% 29.69 in 10.0 mi ENE 8.1 mph - N/A   Overcast
1:56 AM 47.8 °F 46.9 °F 97% 29.71 in 9.0 mi Calm Calm - N/A   Overcast
2:56 AM 46.9 °F 46.9 °F 100% 29.70 in 10.0 mi East 3.5 mph - N/A   Overcast
3:56 AM 48.9 °F 47.8 °F 96% 29.70 in 10.0 mi East 3.5 mph - N/A   Overcast
4:56 AM 46.9 °F 46.9 °F 100% 29.68 in 8.0 mi Calm Calm - 0.00 in Rain Light Rain
5:56 AM 48.9 °F 46.9 °F 93% 29.67 in 10.0 mi East 8.1 mph - 0.00 in   Overcast
6:56 AM 48.2 °F 46.4 °F 93% 29.67 in 10.0 mi ENE 8.1 mph - N/A   Overcast
7:56 AM 48.9 °F 45.9 °F 89% 29.67 in 10.0 mi East 9.2 mph - N/A   Mostly Cloudy
8:56 AM 48.9 °F 45.0 °F 86% 29.67 in 10.0 mi East 5.8 mph - N/A   Overcast
9:56 AM 50.0 °F 45.9 °F 86% 29.67 in 10.0 mi East 8.1 mph - 0.00 in Rain Light Rain
10:42 AM 48.2 °F 48.2 °F 100% 29.67 in 3.0 mi East 4.6 mph - 0.08 in Rain Rain
10:56 AM 48.9 °F 46.9 °F 93% 29.67 in 7.0 mi ENE 5.8 mph - 0.09 in Rain Light Rain
11:56 AM 50.0 °F 48.9 °F 96% 29.67 in 3.0 mi Calm Calm - 0.08 in Rain Rain
12:25 PM 48.2 °F 48.2 °F 100% 29.67 in 2.5 mi WSW 3.5 mph - 0.06 in Rain Rain
12:56 PM 48.2 °F 48.2 °F 100% 29.68 in 3.0 mi Calm Calm - N/A Rain Light Rain
1:05 PM 48.2 °F 48.2 °F 100% 29.67 in 3.0 mi Calm Calm - 0.01 in Rain Rain
1:56 PM 47.8 °F 47.8 °F 100% 29.68 in 10.0 mi Calm Calm - 0.03 in   Overcast
2:56 PM 47.8 °F 47.8 °F 100% 29.68 in 10.0 mi WNW 3.5 mph - 0.00 in   Overcast
3:56 PM 50.0 °F 47.8 °F 92% 29.68 in 10.0 mi East 4.6 mph - N/A   Overcast
4:56 PM 50.0 °F 47.8 °F 92% 29.69 in 10.0 mi East 3.5 mph - N/A   Mostly Cloudy
5:56 PM 47.8 °F 47.8 °F 100% 29.69 in 10.0 mi Calm Calm - 0.00 in Rain Light Rain
6:56 PM 46.9 °F 46.9 °F 100% 29.70 in 10.0 mi East 3.5 mph - 0.00 in   Mostly Cloudy
7:56 PM 46.9 °F 46.9 °F 100% 29.72 in 8.0 mi Calm Calm - 0.01 in Rain Light Rain
8:56 PM 46.9 °F 46.9 °F 100% 29.73 in 6.0 mi Calm Calm - 0.02 in Rain Light Rain
9:56 PM 46.4 °F 46.4 °F 100% 29.74 in 4.0 mi Calm Calm - N/A Rain Light Rain
10:56 PM 45.9 °F 45.9 °F 100% 29.76 in 8.0 mi Calm Calm - 0.01 in Rain Light Rain
11:10 PM 46.4 °F 46.4 °F 100% 29.76 in 7.0 mi Calm Calm - 0.01 in Rain Light Rain
11:56 PM 45.9 °F 45.9 °F 100% 29.78 in 6.0 mi Calm Calm - 0.03 in Rain Light Rain